{"data":{"norad_id":66023,"intl_designator":"2025-232U","name":"STARLINK-35394","alt_names":[],"object_type":"PAYLOAD","status":"ACTIVE","operator":null,"country":"US","launch_date":"2025-10-16","launch_site_code":"AFETR","launch_vehicle":null,"mission":null,"orbit_class":"UNKNOWN","rcs_meters":null,"size_class":null,"mass_kg":null,"dimensions":null,"purposes":["comms"],"wikipedia_slug":null,"has_3d_model":false,"image_url":null,"decayed_at":null,"tle_current":{"epoch":"2026-05-25T03:24:54.480672Z","epoch_age_seconds":65865,"freshness":"FRESH","line1":"1 66023U 25232U   26145.14229723  .00023136  00000+0  79052-3 0  9999","line2":"2 66023  53.1584 108.5860 0001432 140.0356 220.0751 15.30212369 35144","mean_motion":15.30212369,"eccentricity":0.0001432,"inclination_deg":53.1584,"raan_deg":108.586,"arg_perigee_deg":140.0356,"mean_anomaly_deg":220.0751,"bstar":0.00079052,"rev_number":3514,"period_min":94.104585034889,"perigee_km":474.19674333585,"apogee_km":476.15953279139,"semimajor_km":6853.3151380636,"source":"CELESTRAK","updated_at":"2026-05-25T13:38:21.017390Z"}}}